AEZ2330 LIEE-LIRF

Flight info

Callsign AEZ2330
Flight time 0h 47m
Altitude 26000
Route KOVAS Q125 DEXUL DCT ABIDU DCT TINTO DCT VALMA
Aircraft E190/M-SDE3GILORVW/S

Departure

Time 2026-05-09 06:37
Airport Cagliari Elmas Airport (LIEE)

Arrival

Time 2026-05-09 07:24
Airport Rome–Fiumicino Leonardo da Vinci International Airport (LIRF)
Time Latitude Longitude Altitude Speed Heading
2026-05-09 06:23 39.25336 9.05842 14 ft 4 kts 142°
2026-05-09 06:26 39.25338 9.05841 14 ft 2 kts 142°
2026-05-09 06:26 39.25359 9.05821 14 ft 4 kts 148°
2026-05-09 06:27 39.25382 9.05805 14 ft 4 kts 164°
2026-05-09 06:27 39.25407 9.05802 14 ft 4 kts 212°
2026-05-09 06:27 39.25413 9.05808 15 ft 4 kts 231°
2026-05-09 06:32 39.25410 9.05803 14 ft 2 kts 231°
2026-05-09 06:32 39.25393 9.05775 35 ft 6 kts 231°
2026-05-09 06:32 39.25358 9.05719 14 ft 10 kts 229°
2026-05-09 06:33 39.25219 9.05806 14 ft 16 kts 137°
2026-05-09 06:33 39.25130 9.05909 14 ft 19 kts 138°
2026-05-09 06:33 39.25035 9.06043 14 ft 22 kts 131°
2026-05-09 06:34 39.24773 9.06313 14 ft 27 kts 147°
2026-05-09 06:34 39.24607 9.06447 14 ft 29 kts 148°
2026-05-09 06:34 39.24455 9.06572 14 ft 22 kts 149°
2026-05-09 06:34 39.24339 9.06567 14 ft 0 kts 198°
2026-05-09 06:35 39.24338 9.06567 14 ft 1 kts 198°
2026-05-09 06:35 39.24314 9.06557 15 ft 7 kts 198°
2026-05-09 06:35 39.24261 9.06517 16 ft 11 kts 240°
2026-05-09 06:35 39.24296 9.06408 16 ft 17 kts 314°
2026-05-09 06:36 39.24417 9.06269 14 ft 37 kts 319°
2026-05-09 06:36 39.24755 9.05883 14 ft 91 kts 317°
2026-05-09 06:36 39.25365 9.05171 13 ft 148 kts 317°
2026-05-09 06:36 39.26260 9.04148 231 ft 186 kts 319°
2026-05-09 06:37 39.27211 9.03105 1293 ft 181 kts 323°
2026-05-09 06:37 39.28500 9.02445 1593 ft 218 kts
2026-05-09 06:37 39.30033 9.02771 2471 ft 227 kts 22°
2026-05-09 06:37 39.31603 9.03259 3602 ft 238 kts
2026-05-09 06:38 39.33275 9.03490 4719 ft 244 kts
2026-05-09 06:38 39.34915 9.03661 5751 ft 228 kts
2026-05-09 06:38 39.36433 9.03801 6525 ft 219 kts
2026-05-09 06:38 39.38037 9.03937 6751 ft 241 kts
2026-05-09 06:39 39.39720 9.04185 7342 ft 243 kts
2026-05-09 06:39 39.41311 9.04472 8345 ft 218 kts 356°
2026-05-09 06:39 39.42852 9.04525 8670 ft 236 kts 357°
2026-05-09 06:39 39.44620 9.04746 8511 ft 274 kts
2026-05-09 06:40 39.46517 9.05159 9208 ft 264 kts 359°
2026-05-09 06:40 39.48289 9.05261 10208 ft 247 kts 354°
2026-05-09 06:40 39.49955 9.05274 11029 ft 230 kts 354°
2026-05-09 06:40 39.51573 9.05385 11455 ft 237 kts 359°
2026-05-09 06:41 39.53235 9.05586 11762 ft 243 kts 359°
2026-05-09 06:41 39.54932 9.05808 12100 ft 248 kts 360°
2026-05-09 06:41 39.56658 9.06035 12468 ft 251 kts
2026-05-09 06:41 39.58389 9.06262 12845 ft 255 kts
2026-05-09 06:42 39.60158 9.06541 13211 ft 260 kts 11°
2026-05-09 06:42 39.61856 9.07319 13791 ft 250 kts 14°
2026-05-09 06:42 39.63394 9.08023 14610 ft 224 kts 15°
2026-05-09 06:42 39.64892 9.08801 14536 ft 247 kts 19°
2026-05-09 06:43 39.66550 9.09781 14342 ft 269 kts 20°
2026-05-09 06:43 39.68245 9.10812 14677 ft 272 kts 21°
2026-05-09 06:43 39.69973 9.11889 14782 ft 284 kts 20°
2026-05-09 06:43 39.72028 9.12675 13327 ft 342 kts
2026-05-09 06:44 39.74561 9.12820 12986 ft 364 kts 358°
2026-05-09 06:44 39.76928 9.13031 14700 ft 322 kts
2026-05-09 06:44 39.79078 9.13677 15478 ft 321 kts 15°
2026-05-09 06:44 39.81240 9.14726 15357 ft 338 kts
2026-05-09 06:45 39.83577 9.15352 15441 ft 349 kts 13°
2026-05-09 06:45 39.85849 9.16576 15651 ft 359 kts 23°
2026-05-09 06:45 39.88046 9.18154 15845 ft 354 kts 27°
2026-05-09 06:45 39.90070 9.19821 15986 ft 333 kts 30°
2026-05-09 06:46 39.91931 9.21455 16105 ft 312 kts 31°
2026-05-09 06:46 39.93659 9.23008 16217 ft 295 kts 31°
2026-05-09 06:46 39.95322 9.24515 16372 ft 286 kts 31°
2026-05-09 06:46 39.96901 9.25999 16597 ft 275 kts 34°
2026-05-09 06:47 39.97891 9.27027 16754 ft 274 kts 35°
2026-05-09 06:47 39.99382 9.28605 17048 ft 279 kts 35°
2026-05-09 06:47 40.00932 9.30254 17033 ft 296 kts 35°
2026-05-09 06:47 40.02569 9.32003 17045 ft 312 kts 36°
2026-05-09 06:48 40.04262 9.33826 17305 ft 319 kts 36°
2026-05-09 06:48 40.06001 9.35691 17501 ft 328 kts 36°
2026-05-09 06:48 40.07787 9.37603 17705 ft 336 kts 36°
2026-05-09 06:48 40.09617 9.39567 17925 ft 345 kts 36°
2026-05-09 06:49 40.11493 9.41582 18129 ft 354 kts 37°
2026-05-09 06:49 40.13413 9.43649 18310 ft 362 kts 37°
2026-05-09 06:49 40.15380 9.45758 18478 ft 369 kts 37°
2026-05-09 06:49 40.17379 9.47912 18629 ft 376 kts 36°
2026-05-09 06:50 40.19421 9.50107 18783 ft 383 kts 37°
2026-05-09 06:50 40.21494 9.52339 18903 ft 389 kts 37°
2026-05-09 06:50 40.23600 9.54614 19073 ft 395 kts 36°
2026-05-09 06:50 40.25737 9.56920 19231 ft 401 kts 37°
2026-05-09 06:51 40.27903 9.59258 19396 ft 406 kts 37°
2026-05-09 06:51 40.30097 9.61624 19538 ft 411 kts 36°
2026-05-09 06:51 40.32309 9.64027 19690 ft 415 kts 37°
2026-05-09 06:51 40.34545 9.66449 19839 ft 419 kts 37°
2026-05-09 06:52 40.36802 9.68898 19981 ft 423 kts 37°
2026-05-09 06:52 40.39081 9.71369 20130 ft 426 kts 37°
2026-05-09 06:52 40.41372 9.73857 20280 ft 429 kts 37°
2026-05-09 06:52 40.43683 9.76370 20431 ft 432 kts 37°
2026-05-09 06:53 40.46006 9.78895 20574 ft 435 kts 37°
2026-05-09 06:53 40.48339 9.81437 20716 ft 437 kts 37°
2026-05-09 06:53 40.50679 9.83990 20874 ft 439 kts 36°
2026-05-09 06:53 40.53033 9.86557 21020 ft 440 kts 36°
2026-05-09 06:54 40.55391 9.89133 21169 ft 442 kts 36°
2026-05-09 06:54 40.57764 9.91724 21314 ft 443 kts 36°
2026-05-09 06:54 40.60129 9.94316 21459 ft 444 kts 36°
2026-05-09 06:54 40.62512 9.96923 21601 ft 445 kts 36°
2026-05-09 06:55 40.64892 9.99535 21759 ft 446 kts 36°
2026-05-09 06:55 40.67280 10.02154 21894 ft 447 kts 36°
2026-05-09 06:55 40.69671 10.04780 22054 ft 448 kts 36°
2026-05-09 06:55 40.72060 10.07410 22204 ft 448 kts 36°
2026-05-09 06:56 40.74457 10.10044 22358 ft 448 kts 36°
2026-05-09 06:56 40.76821 10.12652 22505 ft 449 kts 36°
2026-05-09 06:56 40.79250 10.15329 22656 ft 449 kts 36°
2026-05-09 06:56 40.81642 10.17970 22803 ft 449 kts 36°
2026-05-09 06:57 40.84008 10.20586 22947 ft 449 kts 35°
2026-05-09 06:57 40.86434 10.23269 23091 ft 449 kts 35°
2026-05-09 06:57 40.88829 10.25920 23254 ft 449 kts 36°
2026-05-09 06:57 40.91221 10.28569 23426 ft 449 kts 35°
2026-05-09 06:58 40.93609 10.31221 23577 ft 448 kts 35°
2026-05-09 06:58 40.95969 10.33839 23717 ft 448 kts 36°
2026-05-09 06:58 40.98326 10.36525 23847 ft 449 kts 37°
2026-05-09 06:58 41.00531 10.39474 23973 ft 451 kts 42°
2026-05-09 06:59 41.02702 10.42463 24103 ft 450 kts 43°
2026-05-09 06:59 41.04840 10.45481 24234 ft 449 kts 43°
2026-05-09 06:59 41.06980 10.48501 24364 ft 449 kts 43°
2026-05-09 06:59 41.09113 10.51519 24514 ft 448 kts 42°
2026-05-09 07:00 41.11245 10.54537 24646 ft 448 kts 42°
2026-05-09 07:00 41.13367 10.57547 24776 ft 447 kts 42°
2026-05-09 07:00 41.15488 10.60556 24909 ft 446 kts 42°
2026-05-09 07:00 41.17603 10.63559 25042 ft 445 kts 42°
2026-05-09 07:01 41.19717 10.66561 25178 ft 444 kts 42°
2026-05-09 07:01 41.21823 10.69561 25317 ft 444 kts 42°
2026-05-09 07:01 41.23928 10.72555 25445 ft 443 kts 42°
2026-05-09 07:01 41.26020 10.75541 25591 ft 442 kts 42°
2026-05-09 07:02 41.28114 10.78529 25743 ft 441 kts 42°
2026-05-09 07:02 41.30199 10.81505 25848 ft 441 kts 42°
2026-05-09 07:02 41.32292 10.84501 25906 ft 442 kts 42°
2026-05-09 07:02 41.34394 10.87506 25942 ft 444 kts 42°
2026-05-09 07:03 41.36499 10.90525 25947 ft 446 kts 42°
2026-05-09 07:03 41.38616 10.93562 25942 ft 449 kts 42°
2026-05-09 07:03 41.40748 10.96622 25931 ft 451 kts 42°
2026-05-09 07:03 41.42880 10.99688 25941 ft 453 kts 42°
2026-05-09 07:04 41.45028 11.02779 25946 ft 455 kts 43°
2026-05-09 07:04 41.46995 11.06130 25935 ft 463 kts 53°
2026-05-09 07:04 41.48568 11.09830 25920 ft 469 kts 62°
2026-05-09 07:04 41.49788 11.13942 25953 ft 471 kts 66°
2026-05-09 07:05 41.50958 11.17974 25952 ft 473 kts 66°
2026-05-09 07:05 41.52112 11.22089 25939 ft 475 kts 66°
2026-05-09 07:05 41.53272 11.26215 25938 ft 476 kts 67°
2026-05-09 07:05 41.54438 11.30371 25782 ft 481 kts 66°
2026-05-09 07:06 41.55613 11.34586 25499 ft 484 kts 66°
2026-05-09 07:06 41.56765 11.38758 25203 ft 472 kts 67°
2026-05-09 07:06 41.57910 11.42794 24902 ft 461 kts 66°
2026-05-09 07:06 41.59028 11.46765 24602 ft 451 kts 66°
2026-05-09 07:07 41.60127 11.50641 24308 ft 442 kts 66°
2026-05-09 07:07 41.61206 11.54470 23874 ft 438 kts 66°
2026-05-09 07:07 41.62274 11.58264 23482 ft 433 kts 66°
2026-05-09 07:07 41.63326 11.62003 23061 ft 428 kts 66°
2026-05-09 07:08 41.64364 11.65702 22631 ft 423 kts 66°
2026-05-09 07:08 41.65390 11.69366 22212 ft 418 kts 66°
2026-05-09 07:08 41.66404 11.72984 21792 ft 414 kts 66°
2026-05-09 07:08 41.67408 11.76579 21383 ft 410 kts 66°
2026-05-09 07:09 41.68400 11.80131 20982 ft 406 kts 66°
2026-05-09 07:09 41.69385 11.83656 20600 ft 403 kts 66°
2026-05-09 07:09 41.70356 11.87158 20223 ft 399 kts 66°
2026-05-09 07:09 41.71318 11.90624 19848 ft 396 kts 66°
2026-05-09 07:10 41.72267 11.94060 19372 ft 393 kts 66°
2026-05-09 07:10 41.73219 11.97495 18785 ft 394 kts 66°
2026-05-09 07:10 41.74420 12.00748 18149 ft 386 kts 49°
2026-05-09 07:10 41.76314 12.03178 17490 ft 373 kts 27°
2026-05-09 07:11 41.78658 12.04444 16876 ft 358 kts
2026-05-09 07:11 41.81079 12.04386 16257 ft 345 kts 342°
2026-05-09 07:11 41.83225 12.03092 15659 ft 337 kts 325°
2026-05-09 07:11 41.85186 12.01392 15066 ft 336 kts 325°
2026-05-09 07:12 41.87169 11.99740 14453 ft 336 kts 327°
2026-05-09 07:12 41.89226 11.98230 13833 ft 337 kts 331°
2026-05-09 07:12 41.91328 11.96839 13160 ft 337 kts 333°
2026-05-09 07:12 41.93461 11.95513 12485 ft 338 kts 335°
2026-05-09 07:13 41.95677 11.94457 11845 ft 339 kts 341°
2026-05-09 07:13 41.97915 11.93465 11213 ft 339 kts 341°
2026-05-09 07:13 42.00156 11.92513 10568 ft 334 kts 342°
2026-05-09 07:13 42.02308 11.91597 9884 ft 315 kts 342°
2026-05-09 07:14 42.04353 11.90729 9153 ft 302 kts 342°
2026-05-09 07:14 42.06315 11.89897 8442 ft 292 kts 342°
2026-05-09 07:14 42.08225 11.89082 7755 ft 284 kts 343°
2026-05-09 07:14 42.10083 11.88292 7191 ft 274 kts 343°
2026-05-09 07:15 42.11855 11.87537 7074 ft 263 kts 343°
2026-05-09 07:15 42.13570 11.86804 6958 ft 256 kts 343°
2026-05-09 07:15 42.15266 11.86127 6737 ft 253 kts 352°
2026-05-09 07:15 42.16979 11.86361 6503 ft 247 kts 25°
2026-05-09 07:16 42.18282 11.87789 6230 ft 244 kts 59°
2026-05-09 07:16 42.18755 11.89932 5943 ft 241 kts 93°
2026-05-09 07:16 42.18237 11.92032 5725 ft 239 kts 127°
2026-05-09 07:16 42.16944 11.93411 5506 ft 239 kts 150°
2026-05-09 07:17 42.15535 11.94582 5272 ft 238 kts 138°
2026-05-09 07:17 42.14401 11.96206 5042 ft 238 kts 126°
2026-05-09 07:17 42.13497 11.98070 4800 ft 238 kts 119°
2026-05-09 07:17 42.12816 12.00069 4543 ft 239 kts 108°
2026-05-09 07:18 42.12198 12.02150 4290 ft 240 kts 116°
2026-05-09 07:18 42.11365 12.04095 4149 ft 237 kts 121°
2026-05-09 07:18 42.10453 12.05908 4048 ft 231 kts 127°
2026-05-09 07:18 42.09425 12.07532 3987 ft 224 kts 130°
2026-05-09 07:19 42.08398 12.09055 3965 ft 215 kts 131°
2026-05-09 07:19 42.07413 12.10506 3949 ft 205 kts 131°
2026-05-09 07:19 42.06470 12.11880 3916 ft 195 kts 131°
2026-05-09 07:19 42.05582 12.13180 3874 ft 183 kts 131°
2026-05-09 07:20 42.04734 12.14414 3694 ft 180 kts 131°
2026-05-09 07:20 42.03869 12.15697 3318 ft 192 kts 130°
2026-05-09 07:20 42.02955 12.17028 3307 ft 193 kts 131°
2026-05-09 07:20 42.01987 12.18256 3379 ft 191 kts 144°
2026-05-09 07:21 42.00856 12.19173 3311 ft 189 kts 154°
2026-05-09 07:21 41.99627 12.19830 3267 ft 194 kts 161°
2026-05-09 07:21 41.98343 12.20382 3298 ft 193 kts 163°
2026-05-09 07:21 41.97017 12.20890 3040 ft 204 kts 163°
2026-05-09 07:22 41.95645 12.21418 2908 ft 204 kts 164°
2026-05-09 07:22 41.94297 12.21960 2750 ft 206 kts 161°
2026-05-09 07:22 41.92898 12.22529 2415 ft 204 kts 163°
2026-05-09 07:22 41.91595 12.23096 2137 ft 194 kts 161°
2026-05-09 07:23 41.90302 12.23652 1738 ft 193 kts 161°
2026-05-09 07:23 41.89055 12.24251 1422 ft 189 kts 159°
2026-05-09 07:23 41.87791 12.24798 926 ft 190 kts 160°
2026-05-09 07:23 41.86569 12.25297 601 ft 181 kts 160°
2026-05-09 07:24 41.85432 12.25796 394 ft 158 kts 159°
2026-05-09 07:24 41.84414 12.26218 44 ft 145 kts 160°
2026-05-09 07:24 41.83643 12.26550 15 ft 68 kts 163°
2026-05-09 07:24 41.83437 12.26632 15 ft 0 kts 167°
2026-05-09 07:25 41.83414 12.26639 13 ft 18 kts 168°
2026-05-09 07:25 41.83212 12.26648 14 ft 38 kts 187°
2026-05-09 07:25 41.82900 12.26572 14 ft 51 kts 182°
2026-05-09 07:25 41.82527 12.26704 14 ft 60 kts 161°
2026-05-09 07:26 41.82104 12.26886 14 ft 66 kts 163°
2026-05-09 07:26 41.81669 12.27065 16 ft 65 kts 162°
2026-05-09 07:26 41.81255 12.27239 15 ft 46 kts 165°
2026-05-09 07:26 41.80974 12.27345 14 ft 42 kts 169°
2026-05-09 07:27 41.80725 12.27311 14 ft 32 kts 189°
2026-05-09 07:27 41.80614 12.27110 16 ft 29 kts 252°
2026-05-09 07:27 41.80550 12.26848 14 ft 30 kts 250°
2026-05-09 07:27 41.80485 12.26602 16 ft 24 kts 250°
2026-05-09 07:28 41.80414 12.26395 14 ft 25 kts 221°
2026-05-09 07:28 41.80241 12.26409 14 ft 26 kts 187°
2026-05-09 07:28 41.80070 12.26318 14 ft 28 kts 204°
2026-05-09 07:28 41.79890 12.26205 14 ft 23 kts 205°
2026-05-09 07:29 41.79776 12.26135 15 ft 11 kts 201°
2026-05-09 07:29 41.79718 12.26191 15 ft 13 kts 115°
2026-05-09 07:29 41.79659 12.26289 14 ft 15 kts 146°
2026-05-09 07:29 41.79561 12.26365 14 ft 18 kts 151°
2026-05-09 07:30 41.79447 12.26450 14 ft 20 kts 150°
2026-05-09 07:30 41.79318 12.26432 15 ft 21 kts 220°
2026-05-09 07:30 41.79343 12.26253 15 ft 20 kts 301°
2026-05-09 07:30 41.79355 12.26224 14 ft 0 kts 299°
2026-05-09 07:38 41.79689 12.25990 14 ft 0 kts 296°
2026-05-09 07:42 41.79688 12.25990 14 ft 0 kts 296°
2026-05-09 07:50 41.79689 12.25990 14 ft 0 kts 296°
2026-05-09 08:02 41.79688 12.25990 14 ft 0 kts 296°